sat.trackr.live / text

‹ back to catalog

SDA_1672

NORAD 65982 · 2025-230J

PAYLOAD ACTIVE UNKNOWN

§ Identity

Operator
Country
US
Launch date
2025-10-15
Launch site
AFWTR
Launch vehicle
Mass (kg)
RCS (m²)

External: N2YO · Heavens-Above · Gunter

§ Orbital elements

Epoch: 2026-05-24T23:08:17.585088Z

Period
104.18 min
Inclination
81.3024°
Eccentricity
0.0001417
Mean motion
13.82251964 rev/d
Perigee alt
954.9 km
Apogee alt
956.9 km
Semi-major
7,334.0 km
B*
1.2115e-4
RAAN
233.4695°
Arg perigee
111.4660°
Mean anomaly
248.6647°
Rev number
3,058

§ Raw data

SDA_16721 65982U 25230J   26144.96409242  .00000142  00000+0  12115-3 0  99942 65982  81.3024 233.4695 0001417 111.4660 248.6647 13.82251964 30588

JSON: /api/v1/satellites/65982 · /tle

For live sub-satellite position, see the globe view (requires WebGL).

§ Visibility from observer

Set your observer location to see the next 7 days of passes ≥ 10°. The values pass through the URL so the page stays shareable.

No JS? Fill the form by hand. The geolocation button needs JavaScript.